GW5690 Weather Reports


Display with metric or nautical units.
time (UTC)temp
F
wind
direction
speed
MPH
gust
MPH
rain 1hr
in
rain 24hr
in
rain mn
in
humidity
%
barometer
mb
20260504081803 69 305 6.0 11.0 0.00 0.00 0.00 63 1012.5
20260504080903 69 306 6.0 13.0 0.00 0.00 0.00 63 1012.7
20260504050003 64 313 6.0 13.0 0.00 0.00 0.00 71 1013.4
20260504045403 64 308 9.0 18.0 0.00 0.00 0.00 72 1013.5
20260504044504 63 303 12.0 19.0 0.00 0.00 0.00 72 1013.5
20260504043603 63 311 9.0 18.0 0.00 0.00 0.00 73 1013.0
20260504042703 63 307 9.0 15.0 0.00 0.00 0.00 73 1013.0
20260504041804 63 319 8.0 16.0 0.00 0.00 0.00 73 1012.9
20260504040903 63 315 8.0 18.0 0.00 0.00 0.00 74 1012.3
20260504040004 62 309 9.0 16.0 0.00 0.00 0.00 74 1012.1
20260504035424 62 316 7.0 16.0 0.00 0.00 0.00 75 1012.1
20260504034504 62 321 7.0 15.0 0.00 0.00 0.00 76 1012.2
20260504033604 61 327 8.0 17.0 0.00 0.00 0.00 76 1012.3
20260504032725 61 313 9.0 17.0 0.00 0.00 0.00 76 1012.3
20260504031824 61 310 8.0 14.0 0.00 0.00 0.00 75 1012.3
20260504030904 61 305 8.0 14.0 0.00 0.00 0.00 76 1012.4
20260504030003 61 319 5.0 10.0 0.00 0.00 0.00 76 1012.2
20260504025403 60 308 7.0 11.0 0.00 0.00 0.00 77 1012.2
20260504024503 61 309 6.0 11.0 0.00 0.00 0.00 76 1012.4
20260504023603 61 305 6.0 10.0 0.00 0.00 0.00 76 1012.0
20260504022724 61 316 5.0 10.0 0.00 0.00 0.00 75 1012.0
20260504021803 61 312 7.0 10.0 0.00 0.00 0.00 75 1011.8
20260504020904 62 304 5.0 10.0 0.00 0.00 0.00 73 1011.7
20260504020002 62 312 8.0 14.0 0.00 0.00 0.00 72 1011.5
20260504015402 62 310 10.0 16.0 0.00 0.00 0.00 72 1011.8
20260504014503 63 310 9.0 16.0 0.00 0.00 0.00 71 1011.5
20260504013603 63 305 7.0 15.0 0.00 0.00 0.00 71 1011.5
20260504012702 63 310 6.0 13.0 0.00 0.00 0.00 72 1011.4
20260504011823 63 331 6.0 16.0 0.00 0.00 0.00 71 1011.5
20260504010903 63 344 5.0 13.0 0.00 0.00 0.00 71 1011.5
20260504010002 64 320 6.0 13.0 0.00 0.00 0.00 70 1011.7
20260504005402 64 311 7.0 13.0 0.00 0.00 0.00 70 1011.6
20260504004503 64 308 10.0 18.0 0.00 0.00 0.00 70 1011.5
20260504003605 64 308 11.0 18.0 0.00 0.00 0.00 69 1011.3
20260504002702 65 312 7.0 14.0 0.00 0.00 0.00 70 1010.9
20260504001802 65 314 7.0 16.0 0.00 0.00 0.00 69 1011.1
20260504000903 65 307 9.0 16.0 0.00 0.00 0.00 68 1011.1
20260504000024 66 304 13.0 22.0 0.00 0.00 0.00 68 1011.0
20260503235424 66 308 16.0 23.0 0.00 0.00 0.00 67 1011.4
20260503234502 66 312 13.0 23.0 0.00 0.00 0.00 67 1010.9
20260503233603 67 310 14.0 22.0 0.00 0.00 0.00 67 1010.7
20260503232703 67 313 11.0 22.0 0.00 0.00 0.00 67 1010.6
20260503231823 67 320 9.0 18.0 0.00 0.00 0.00 67 1010.9
20260503230902 68 320 7.0 21.0 0.00 0.00 0.00 68 1010.7
20260503230003 69 315 6.0 21.0 0.00 0.00 0.00 68 1010.6
20260503225402 69 323 5.0 14.0 0.00 0.00 0.00 68 1011.0
20260503224502 69 315 11.0 19.0 0.00 0.00 0.00 67 1010.9
20260503223603 70 313 12.0 19.0 0.00 0.00 0.00 66 1010.4
20260503222724 71 316 11.0 24.0 0.00 0.00 0.00 65 1009.8
20260503221803 71 319 8.0 17.0 0.00 0.00 0.00 64 1009.2
20260503220903 72 320 9.0 18.0 0.00 0.00 0.00 62 1009.3
20260503220002 72 318 6.0 17.0 0.00 0.00 0.00 61 1009.0
20260503215402 73 320 6.0 14.0 0.00 0.00 0.00 61 1009.1
20260503214502 73 322 6.0 14.0 0.00 0.00 0.00 61 1009.1
20260503213602 73 317 8.0 16.0 0.00 0.00 0.00 61 1009.2
20260503212703 73 314 12.0 22.0 0.00 0.00 0.00 62 1008.8
20260503211824 74 308 13.0 22.0 0.00 0.00 0.00 63 1008.9
20260503210903 74 312 13.0 25.0 0.00 0.00 0.00 63 1007.8
20260503210003 75 315 13.0 22.0 0.00 0.00 0.00 64 1007.8
20260503205424 75 310 13.0 23.0 0.00 0.00 0.00 64 1007.8
20260503204524 76 307 14.0 25.0 0.00 0.00 0.00 63 1007.6
20260503203603 77 305 17.0 29.0 0.00 0.00 0.00 61 1007.3
20260503202724 80 276 10.0 26.0 0.00 0.00 0.00 55 1006.8
20260503201804 81 224 2.0 7.0 0.00 0.00 0.00 49 1006.4
20260503200903 81 219 4.0 8.0 0.00 0.00 0.00 49 1006.3
20260503200003 81 239 6.0 15.0 0.00 0.00 0.00 48 1006.0
20260503195424 82 237 7.0 15.0 0.00 0.00 0.00 49 1006.0
20260503194503 82 44 1.0 6.0 0.00 0.00 0.00 47 1005.5
20260503193603 82 85 2.0 10.0 0.00 0.00 0.00 47 1005.0
20260503192727 82 13 3.0 8.0 0.00 0.00 0.00 46 1004.7
20260503191824 82 46 2.0 8.0 0.00 0.00 0.00 46 1004.8
20260503190903 82 124 4.0 16.0 0.00 0.00 0.00 47 1005.0
20260503190003 82 118 5.0 16.0 0.00 0.00 0.00 49 1005.2
20260503185424 82 110 3.0 9.0 0.00 0.00 0.00 50 1005.3
20260503184503 82 129 4.0 11.0 0.00 0.00 0.00 50 1004.7
20260503183603 83 188 2.0 9.0 0.00 0.00 0.00 48 1004.6
20260503182703 82 91 1.0 4.0 0.00 0.00 0.00 52 1005.1
20260503181803 82 105 3.0 14.0 0.00 0.00 0.00 51 1004.4
20260503180903 82 136 5.0 14.0 0.00 0.00 0.00 50 1004.8
20260503180004 81 127 7.0 16.0 0.00 0.00 0.00 55 1004.8
20260503175424 82 128 7.0 16.0 0.00 0.00 0.00 56 1005.1
20260503174503 81 118 6.0 13.0 0.00 0.00 0.00 58 1005.8
20260503173603 81 132 8.0 15.0 0.00 0.00 0.00 59 1005.8
20260503172703 81 123 10.0 18.0 0.00 0.00 0.00 59 1005.4
20260503171803 81 117 9.0 15.0 0.00 0.00 0.00 59 1004.3
20260503170903 82 110 8.0 14.0 0.00 0.00 0.00 58 1004.0
20260503130902 85 107 8.0 15.0 0.00 0.00 0.00 56 1005.6